| time (UTC) | temp C | wind direction | speed KPH | gust KPH | rain 1hr cm | rain 24hr cm | rain mn cm | humidity % | barometer mb |
| 20260505054520 | 17 | 0.0 | 0.0 | 0.00 | 0.00 | 0.00 | 58 | 1015.7 | |
| 20260505053521 | 17 | 0.0 | 0.0 | 0.00 | 0.00 | 0.00 | 57 | 1015.7 | |
| 20260505052521 | 16 | 0.0 | 0.0 | 0.00 | 0.00 | 0.00 | 60 | 1015.7 | |
| 20260505051521 | 15 | 0.0 | 0.0 | 0.00 | 0.00 | 0.00 | 61 | 1015.7 | |
| 20260505050521 | 14 | 0.0 | 0.0 | 0.00 | 0.00 | 0.00 | 62 | 1015.7 | |
| 20260505041521 | 15 | 0.0 | 0.0 | 0.00 | 0.00 | 0.00 | 58 | 1015.7 | |
| 20260505040521 | 14 | 0.0 | 0.0 | 0.00 | 0.00 | 0.00 | 58 | 1015.7 | |
| 20260505035523 | 14 | 0.0 | 0.0 | 0.00 | 0.00 | 0.00 | 58 | 1015.7 | |
| 20260505034521 | 13 | 0.0 | 0.0 | 0.00 | 0.00 | 0.00 | 58 | 1015.6 | |
| 20260505033542 | 13 | 0.0 | 0.0 | 0.00 | 0.00 | 0.00 | 59 | 1015.5 | |
| 20260505032521 | 12 | 0.0 | 0.0 | 0.00 | 0.00 | 0.00 | 60 | 1015.5 | |
| 20260505031521 | 12 | 0.0 | 0.0 | 0.00 | 0.00 | 0.00 | 60 | 1015.4 | |
| 20260505030521 | 12 | 0.0 | 0.0 | 0.00 | 0.00 | 0.00 | 60 | 1015.4 | |
| 20260505025522 | 12 | 0.0 | 0.0 | 0.00 | 0.00 | 0.00 | 60 | 1015.4 | |
| 20260505024523 | 12 | 0.0 | 0.0 | 0.00 | 0.00 | 0.00 | 60 | 1015.3 | |
| 20260505023520 | 12 | 0.0 | 0.0 | 0.00 | 0.00 | 0.00 | 60 | 1015.3 | |
| 20260505022523 | 12 | 0.0 | 0.0 | 0.00 | 0.00 | 0.00 | 59 | 1015.4 | |
| 20260505021521 | 13 | 0.0 | 0.0 | 0.00 | 0.00 | 0.00 | 59 | 1015.4 | |
| 20260505020521 | 13 | 0.0 | 0.0 | 0.00 | 0.00 | 0.00 | 59 | 1015.3 | |
| 20260505015520 | 12 | 0.0 | 0.0 | 0.00 | 0.00 | 0.00 | 59 | 1015.3 | |
| 20260505014541 | 12 | 0.0 | 0.0 | 0.00 | 0.00 | 0.00 | 59 | 1015.3 | |
| 20260505013520 | 12 | 0.0 | 0.0 | 0.00 | 0.00 | 0.00 | 59 | 1015.3 | |
| 20260505012522 | 13 | 0.0 | 0.0 | 0.00 | 0.00 | 0.00 | 59 | 1015.2 | |
| 20260505011522 | 12 | 0.0 | 0.0 | 0.00 | 0.00 | 0.00 | 59 | 1015.2 | |
| 20260505010522 | 12 | 0.0 | 0.0 | 0.00 | 0.00 | 0.00 | 58 | 1015.3 | |
| 20260505005522 | 13 | 0.0 | 0.0 | 0.00 | 0.00 | 0.00 | 58 | 1015.2 | |
| 20260505004521 | 13 | 0.0 | 0.0 | 0.00 | 0.00 | 0.00 | 57 | 1015.2 | |
| 20260505003521 | 13 | 0.0 | 0.0 | 0.00 | 0.00 | 0.00 | 57 | 1015.2 | |
| 20260505002521 | 13 | 119 | 0.0 | 1.6 | 0.00 | 0.00 | 0.00 | 57 | 1015.3 |
| 20260505001521 | 13 | 0.0 | 0.0 | 0.00 | 0.00 | 0.00 | 57 | 1015.3 | |
| 20260505000521 | 13 | 0.0 | 0.0 | 0.00 | 0.00 | 0.00 | 56 | 1015.4 | |
| 20260504235542 | 13 | 0.0 | 0.0 | 0.00 | 0.00 | 0.00 | 56 | 1015.5 | |
| 20260504234521 | 13 | 0.0 | 0.0 | 0.00 | 0.00 | 0.00 | 56 | 1015.4 | |
| 20260504233541 | 14 | 0.0 | 0.0 | 0.00 | 0.00 | 0.00 | 55 | 1015.5 | |
| 20260504232522 | 14 | 0.0 | 0.0 | 0.00 | 0.00 | 0.00 | 55 | 1015.5 | |
| 20260504231523 | 14 | 0.0 | 0.0 | 0.00 | 0.00 | 0.00 | 56 | 1015.5 | |
| 20260504230520 | 14 | 0.0 | 0.0 | 0.00 | 0.00 | 0.00 | 55 | 1015.5 | |
| 20260504225520 | 14 | 0.0 | 0.0 | 0.00 | 0.00 | 0.00 | 55 | 1015.6 | |
| 20260504224521 | 15 | 0.0 | 0.0 | 0.00 | 0.00 | 0.00 | 54 | 1015.6 | |
| 20260504223541 | 15 | 0.0 | 0.0 | 0.00 | 0.00 | 0.00 | 53 | 1015.5 | |
| 20260504222522 | 15 | 0.0 | 0.0 | 0.00 | 0.00 | 0.00 | 53 | 1015.6 | |
| 20260504221521 | 15 | 0.0 | 0.0 | 0.00 | 0.00 | 0.00 | 54 | 1015.6 | |
| 20260504220521 | 15 | 0.0 | 0.0 | 0.00 | 0.00 | 0.00 | 53 | 1015.5 | |
| 20260504215521 | 15 | 0.0 | 0.0 | 0.00 | 0.00 | 0.00 | 54 | 1015.6 | |
| 20260504214521 | 15 | 0.0 | 0.0 | 0.00 | 0.00 | 0.00 | 53 | 1015.6 | |
| 20260504213541 | 16 | 0.0 | 0.0 | 0.00 | 0.00 | 0.00 | 53 | 1015.5 | |
| 20260504212605 | 16 | 0.0 | 0.0 | 0.00 | 0.00 | 0.00 | 53 | 1015.5 | |
| 20260504211520 | 16 | 0.0 | 0.0 | 0.00 | 0.00 | 0.00 | 51 | 1015.5 | |
| 20260504210520 | 16 | 0.0 | 0.0 | 0.00 | 0.00 | 0.00 | 50 | 1015.4 | |
| 20260504205522 | 17 | 0.0 | 0.0 | 0.00 | 0.00 | 0.00 | 49 | 1015.4 | |
| 20260504204521 | 17 | 0.0 | 0.0 | 0.00 | 0.00 | 0.00 | 49 | 1015.4 | |
| 20260504203519 | 17 | 0.0 | 0.0 | 0.00 | 0.00 | 0.00 | 50 | 1015.4 | |
| 20260504202520 | 17 | 0.0 | 0.0 | 0.00 | 0.00 | 0.00 | 51 | 1015.4 | |
| 20260504201522 | 17 | 0.0 | 0.0 | 0.00 | 0.00 | 0.00 | 49 | 1015.4 | |
| 20260504200530 | 17 | 0.0 | 0.0 | 0.00 | 0.00 | 0.00 | 48 | 1015.4 | |
| 20260504195522 | 18 | 0.0 | 0.0 | 0.00 | 0.00 | 0.00 | 48 | 1015.3 | |
| 20260504194548 | 18 | 0.0 | 0.0 | 0.00 | 0.00 | 0.00 | 48 | 1015.2 | |
| 20260504193519 | 18 | 0.0 | 0.0 | 0.00 | 0.00 | 0.00 | 47 | 1015.2 | |
| 20260504192519 | 18 | 0.0 | 0.0 | 0.00 | 0.00 | 0.00 | 47 | 1015.2 | |
| 20260504191519 | 19 | 0.0 | 0.0 | 0.00 | 0.00 | 0.00 | 46 | 1015.1 | |
| 20260504190518 | 19 | 0.0 | 0.0 | 0.00 | 0.00 | 0.00 | 46 | 1015.0 | |
| 20260504185519 | 19 | 0.0 | 0.0 | 0.00 | 0.00 | 0.00 | 46 | 1015.0 | |
| 20260504184518 | 19 | 0.0 | 0.0 | 0.00 | 0.00 | 0.00 | 46 | 1014.9 | |
| 20260504183518 | 19 | 0.0 | 0.0 | 0.00 | 0.00 | 0.00 | 47 | 1014.9 | |
| 20260504182517 | 19 | 0.0 | 0.0 | 0.00 | 0.00 | 0.00 | 47 | 1014.8 | |
| 20260504181517 | 20 | 0.0 | 0.0 | 0.00 | 0.00 | 0.00 | 47 | 1014.7 | |
| 20260504180516 | 20 | 0.0 | 0.0 | 0.00 | 0.00 | 0.00 | 45 | 1014.6 | |
| 20260504175517 | 21 | 0.0 | 0.0 | 0.00 | 0.00 | 0.00 | 44 | 1014.4 | |
| 20260504174537 | 21 | 0.0 | 0.0 | 0.00 | 0.00 | 0.00 | 43 | 1014.3 | |
| 20260504173516 | 21 | 0.0 | 0.0 | 0.00 | 0.00 | 0.00 | 44 | 1014.2 | |
| 20260504172518 | 21 | 0.0 | 0.0 | 0.00 | 0.00 | 0.00 | 44 | 1014.2 | |
| 20260504171521 | 21 | 95 | 0.0 | 3.2 | 0.00 | 0.00 | 0.00 | 44 | 1014.3 |
| 20260504170523 | 22 | 88 | 0.0 | 3.2 | 0.00 | 0.00 | 0.00 | 43 | 1014.1 |
| 20260504150522 | 25 | 67 | 1.6 | 4.8 | 0.00 | 0.00 | 0.00 | 36 | 1013.9 |
| 20260504140522 | 25 | 59 | 4.8 | 9.7 | 0.00 | 0.00 | 0.00 | 36 | 1014.2 |
| 20260504130521 | 25 | 51 | 4.8 | 9.7 | 0.00 | 0.00 | 0.00 | 34 | 1014.5 |
| 20260504110522 | 24 | 58 | 1.6 | 3.2 | 0.00 | 0.00 | 0.00 | 40 | 1015.6 |
| 20260504100530 | 22 | 46 | 1.6 | 3.2 | 0.00 | 0.00 | 0.00 | 43 | 1016.2 |
| 20260504081525 | 18 | 0.0 | 0.0 | 0.00 | 0.00 | 0.00 | 58 | 1016.6 | |
| 20260504080545 | 17 | 336 | 0.0 | 1.6 | 0.00 | 0.00 | 0.00 | 60 | 1016.6 |